Year,Month,Day,Hour,Minute,Value (Times are PST for temperature in C)
2010,09,25,00,00,12.30
2010,09,25,00,01,12.30
2010,09,25,00,02,12.30
2010,09,25,00,03,12.30
2010,09,25,00,04,12.30
2010,09,25,00,05,12.30
2010,09,25,00,06,12.30
2010,09,25,00,07,12.40
2010,09,25,00,08,12.40
2010,09,25,00,09,12.40
2010,09,25,00,10,12.40
2010,09,25,00,11,12.40
2010,09,25,00,12,12.40
2010,09,25,00,13,12.40
2010,09,25,00,14,12.40
2010,09,25,00,15,12.40
2010,09,25,00,16,12.40
2010,09,25,00,17,12.40
2010,09,25,00,18,12.40
2010,09,25,00,19,12.40
2010,09,25,00,20,12.40
2010,09,25,00,21,12.40
2010,09,25,00,22,12.40
2010,09,25,00,23,12.40
2010,09,25,00,24,12.40
2010,09,25,16,51,21.00
2010,09,25,16,52,21.00
2010,09,25,16,53,21.00
2010,09,25,16,54,21.00
2010,09,25,16,55,21.00
2010,09,25,16,56,21.00
2010,09,25,16,57,21.00
2010,09,25,16,58,20.90
2010,09,25,16,59,20.90
2010,09,25,17,00,20.80
2010,09,25,17,01,20.80
2010,09,25,17,02,20.80
2010,09,25,17,03,20.70
2010,09,25,17,04,20.60
2010,09,25,17,05,20.50
2010,09,25,17,06,20.50
2010,09,25,17,07,20.50
2010,09,25,17,08,20.50
2010,09,25,17,09,20.50
2010,09,25,17,10,20.50
2010,09,25,17,11,20.50
2010,09,25,17,12,20.40
2010,09,25,17,13,20.40
2010,09,25,17,14,20.40
2010,09,25,17,15,20.40
2010,09,25,17,16,20.40
2010,09,25,17,17,20.40
2010,09,25,17,18,20.40
2010,09,25,17,19,20.40
2010,09,25,17,20,20.40
2010,09,25,17,21,20.40
2010,09,25,17,22,20.40
2010,09,25,17,23,20.40
2010,09,25,17,24,20.30
2010,09,25,17,25,20.30
2010,09,25,17,26,20.30
2010,09,25,17,27,20.30
2010,09,25,17,28,20.30
2010,09,25,17,29,20.30
2010,09,25,17,30,20.30
2010,09,25,17,31,20.30
2010,09,25,17,32,20.30
2010,09,25,17,33,20.30
2010,09,25,17,34,20.30
2010,09,25,17,35,20.30
2010,09,25,17,36,20.30
2010,09,25,17,37,20.30
2010,09,25,17,38,20.30
2010,09,25,17,39,20.30
2010,09,25,17,40,20.30
2010,09,25,17,41,20.20
2010,09,25,17,42,20.20
2010,09,25,17,43,20.20
2010,09,25,17,44,20.20
2010,09,25,17,45,20.20
2010,09,25,17,46,20.20
2010,09,25,17,47,20.10
2010,09,25,17,48,20.20
2010,09,25,17,49,20.20
2010,09,25,17,50,20.20
2010,09,25,17,51,20.10
2010,09,25,17,52,20.10
2010,09,25,17,53,20.00
2010,09,25,17,54,19.90
2010,09,25,17,55,19.90
2010,09,25,17,56,19.90
2010,09,25,17,57,19.90
2010,09,25,17,58,19.90
2010,09,25,17,59,19.90
2010,09,25,18,00,19.90
2010,09,25,18,01,19.80
2010,09,25,18,02,19.70
2010,09,25,18,03,19.70
2010,09,25,18,04,19.60
2010,09,25,18,05,19.60
2010,09,25,18,06,19.60
2010,09,25,18,07,19.50
2010,09,25,18,08,19.50
2010,09,25,18,09,19.50
2010,09,25,18,10,19.40
2010,09,25,18,11,19.30
2010,09,25,18,12,19.20
2010,09,25,18,13,19.20
2010,09,25,18,14,19.10
2010,09,25,18,15,19.10
2010,09,25,18,16,19.10
2010,09,25,18,17,19.10
2010,09,25,18,18,19.10
2010,09,25,18,19,19.10
2010,09,25,18,20,19.00
2010,09,25,18,21,18.90
2010,09,25,18,22,18.90
2010,09,25,18,23,18.90
2010,09,25,18,24,18.90
2010,09,25,18,25,18.90
2010,09,25,18,26,18.80
2010,09,25,18,27,18.70
2010,09,25,18,28,18.60
2010,09,25,18,29,18.60
2010,09,25,18,30,18.50
2010,09,25,18,31,18.50
2010,09,25,18,32,18.40
2010,09,25,18,33,18.40
2010,09,25,18,34,18.40
2010,09,25,18,35,18.30
2010,09,25,18,36,18.30
2010,09,25,18,37,18.20
2010,09,25,18,38,18.20
2010,09,25,18,39,18.20
2010,09,25,18,40,18.00
2010,09,25,18,41,17.90
2010,09,25,18,42,17.80
2010,09,25,18,43,17.70
2010,09,25,18,44,17.60
2010,09,25,18,45,17.50
2010,09,25,18,46,17.40
2010,09,25,18,47,17.30
2010,09,25,18,48,17.30
2010,09,25,18,49,17.30
2010,09,25,18,50,17.30
2010,09,25,18,51,17.30
2010,09,25,18,52,17.30
2010,09,25,18,53,17.20
2010,09,25,18,54,17.20
2010,09,25,18,55,17.20
2010,09,25,18,56,17.10
2010,09,25,18,57,17.10
2010,09,25,18,58,17.10
2010,09,25,18,59,17.10
2010,09,25,19,00,17.00
2010,09,25,19,01,17.00
2010,09,25,19,02,17.00
2010,09,25,19,03,16.90
2010,09,25,19,04,16.90
2010,09,25,19,05,16.90
2010,09,25,19,06,16.90
2010,09,25,19,07,16.80
2010,09,25,19,08,16.80
2010,09,25,19,09,16.70
2010,09,25,19,10,16.70
2010,09,25,19,11,16.70
2010,09,25,19,12,16.70
2010,09,25,19,13,16.70
2010,09,25,19,14,16.60
2010,09,25,19,15,16.60
2010,09,25,19,16,16.50
2010,09,25,19,17,16.40
2010,09,25,19,18,16.40
2010,09,25,19,19,16.40
2010,09,25,19,20,16.40
2010,09,25,19,21,16.30
2010,09,25,19,22,16.30
2010,09,25,19,23,16.30
2010,09,25,19,24,16.20
2010,09,25,19,25,16.20
2010,09,25,19,26,16.20
2010,09,25,19,27,16.10
2010,09,25,19,28,16.10
2010,09,25,19,29,16.10
2010,09,25,19,30,16.10
2010,09,25,19,31,16.10
2010,09,25,19,32,15.90
2010,09,25,19,33,15.90
2010,09,25,19,34,15.90
2010,09,25,19,35,15.80
2010,09,25,19,36,15.80
2010,09,25,19,37,15.80
2010,09,25,19,38,15.80
2010,09,25,19,39,15.80
2010,09,25,19,40,15.70
2010,09,25,19,41,15.70
2010,09,25,19,42,15.70
2010,09,25,19,43,15.60
2010,09,25,19,44,15.60
2010,09,25,19,45,15.60
2010,09,25,19,46,15.50
2010,09,25,19,47,15.50
2010,09,25,19,48,15.50
2010,09,25,19,49,15.50
2010,09,25,19,50,15.50
2010,09,25,19,51,15.50
2010,09,25,19,52,15.50
2010,09,25,19,53,15.50
2010,09,25,19,54,15.50
2010,09,25,19,55,15.50
2010,09,25,19,56,15.50
2010,09,25,19,57,15.50
2010,09,25,19,58,15.40
2010,09,25,19,59,15.40
2010,09,25,20,00,15.40
2010,09,25,20,01,15.40
2010,09,25,20,02,15.40
2010,09,25,20,03,15.40
2010,09,25,20,04,15.40
2010,09,25,20,05,15.40
2010,09,25,20,06,15.40
2010,09,25,20,07,15.40
2010,09,25,20,08,15.40
2010,09,25,20,09,15.40
2010,09,25,20,10,15.30
2010,09,25,20,11,15.30
2010,09,25,20,12,15.30
2010,09,25,20,13,15.30
2010,09,25,20,14,15.30
2010,09,25,20,15,15.30
2010,09,25,20,16,15.30
2010,09,25,20,17,15.30
2010,09,25,20,18,15.30
2010,09,25,20,19,15.30
2010,09,25,20,20,15.30
2010,09,25,20,21,15.30
2010,09,25,20,22,15.30
2010,09,25,20,23,15.30
2010,09,25,20,24,15.30
2010,09,25,20,25,15.30
2010,09,25,20,26,15.30
2010,09,25,20,27,15.30
2010,09,25,20,28,15.30
2010,09,25,20,29,15.30
2010,09,25,20,30,15.30
2010,09,25,20,31,15.30
2010,09,25,20,32,15.30
2010,09,25,20,33,15.30
2010,09,25,20,34,15.30
2010,09,25,20,35,15.30
2010,09,25,20,36,15.30
2010,09,25,20,37,15.30
2010,09,25,20,38,15.30
2010,09,25,20,39,15.30
2010,09,25,20,40,15.30
2010,09,25,20,41,15.30
2010,09,25,20,42,15.30
2010,09,25,20,43,15.30
2010,09,25,20,44,15.30
2010,09,25,20,45,15.30
2010,09,25,20,46,15.30
2010,09,25,20,47,15.30
2010,09,25,20,48,15.30
2010,09,25,20,49,15.30
2010,09,25,20,50,15.30
2010,09,25,20,51,15.30
2010,09,25,20,52,15.30
2010,09,25,20,53,15.30
2010,09,25,20,54,15.30
2010,09,25,20,55,15.20
2010,09,25,20,56,15.20
2010,09,25,20,57,15.20
2010,09,25,20,58,15.20
2010,09,25,20,59,15.20
2010,09,25,21,00,15.20
2010,09,25,21,01,15.20
2010,09,25,21,02,15.20
2010,09,25,21,03,15.20
2010,09,25,21,04,15.20
2010,09,25,21,05,15.20
2010,09,25,21,06,15.20
2010,09,25,21,07,15.20
2010,09,25,21,08,15.20
2010,09,25,21,09,15.20
2010,09,25,21,10,15.40
2010,09,25,21,11,15.80
2010,09,25,21,12,16.10
2010,09,25,21,13,16.50
2010,09,25,21,14,16.80
2010,09,25,21,15,17.10
2010,09,25,21,16,17.40
2010,09,25,21,17,17.60
2010,09,25,21,18,17.70
2010,09,25,21,19,18.10
2010,09,25,21,20,18.20
2010,09,25,21,21,18.10
2010,09,25,21,22,18.00
2010,09,25,21,23,17.60
2010,09,25,21,24,17.30
2010,09,25,21,25,17.00
2010,09,25,21,26,16.70
2010,09,25,21,27,16.70
2010,09,25,21,28,15.70
2010,09,25,21,29,15.40
2010,09,25,21,30,15.10
2010,09,25,21,31,14.90
2010,09,25,21,32,14.60
2010,09,25,21,33,14.50
2010,09,25,21,34,14.20
2010,09,25,21,35,14.20
2010,09,25,21,36,14.20
2010,09,25,21,37,14.20
2010,09,25,21,38,14.20
2010,09,25,21,39,14.20
2010,09,25,21,40,14.20
2010,09,25,21,41,14.20
2010,09,25,21,42,14.20
2010,09,25,21,43,14.20
2010,09,25,21,44,14.20
